Weather in Ogoron

Russia / Amur Oblast     53°57′40″N   129°08′39″E
temp.,
°C
wind,
m/s
gust,
m/s
humid.,
%
clouds,
%
prec.,
mm/h
press.,
hPa
HPBL,
m
27 july, tue
tue2700:00+16ene2288100 0.0 100515
03:00+15e119092 0.0 100620
06:00+17ne238899 0.0 100568
09:00+23nne345895 0.0 1006722
12:00+26nne554396 0.0 10051827
15:00+26nne554139 0.0 10041738
18:00+25ne465226 0.0 1004531
21:00+19e226988 0.0 100415
28 july, wed
wed2800:00+18ese1170100 0.0 100414
03:00+18ese1165100 0.0 100413
06:00+19ene1166100 0.0 100312
09:00+24se134735 0.0 1003721
12:00+20ssw2270100 0.1 100264
15:00+20s227692 0.2 1001190
18:00+20ese118452 0.2 100144
21:00+18ese119022 0.2 100111
29 july, thu
thu2900:00+16se119380 0.0 100012
03:00+18sse129599 1.1 100019
06:00+18s1297100 1.6 99981
09:00+18s469498 2.1 1000381
12:00+23sw566058 0.1 9991190
15:00+24sw665593 0.1 9981654
18:00+21sw367328 0.3 998561
21:00+16w129641 1.4 99931
30 july, fri
fri3000:00+16nw129999 0.5 999183
03:00+14nne2399100 0.8 1000294
06:00+11ne5898100 0.2 1001402
09:00+12ne71493100 0.6 1002610
12:00+13ne5128164 0.3 1003615
15:00+18ne68563 0.3 10021010
18:00+17ne56603 0.0 1003804
21:00+11e11864 0.0 100510
31 july, sat
sat3100:00+10ene228959 0.0 100725
03:00+11nne36835 0.0 1008187
06:00+9nne36890 0.0 1010257
09:00+14nne795924 0.0 10111204
12:00+17nne68457 0.0 10121647
15:00+20nne67394 0.0 10121885
18:00+19n36470 0.0 10131592
21:00+12n11690 0.0 101410